[[{"header":{"parameterUnit":"m.s-1","parameterCategory":1,"la1":30.2991,"la2":30.254,"lo1":-89.0895,"lo2":-89.0444,"dy":0.0017,"dx":0.0017,"nx":28,"ny":28,"refTime":"2024-04-20T03:00:00:Z","depth":0,"parameterNumber":2,"parameterNumberName":"U-component_of_WINDS"},"data":[0,0,0,0,0,0,0,0,0,0,0,0,0,0,0,0,0,0,0,0,0,0,0,0,0,0,0,0,0,0,0,0,0,0,0,0,0,0,0,0,0,0,0,0,0,0,0,0,0,0,0,0,0,0,0,0,0,0,1.801,1.8011,0,1.8182,1.8184,1.8186,1.8204,1.8202,1.82,1.8198,1.8378,1.8384,1.839,0,0,0,0,0,0,0,0,0,0,0,0,0,1.7697,1.7703,1.8009,1.8011,1.8014,1.8182,1.8184,1.8187,1.8204,1.8202,1.82,1.8198,1.8376,1.8383,1.8391,0,0,0,0,0,0,0,0,0,0,0,0,0,1.7848,1.7705,1.8009,1.8043,1.8047,1.8181,1.8184,1.8187,1.8205,1.8202,1.8199,1.8197,1.8373,1.8383,1.8392,1.8505,0,0,1.8422,1.8426,0,0,0,0,0,0,0,0,1.7839,1.7859,1.8035,1.804,1.8046,1.8169,1.814,1.8294,1.8205,1.8145,1.8198,1.8195,1.8311,1.8325,1.8364,1.8514,1.8521,1.8422,1.8428,1.8432,1.8435,0,0,0,0,0,0,0,1.7829,1.7852,1.8078,1.8038,1.8045,1.805,1.8068,1.8169,1.8241,1.815,1.8152,1.8172,1.8313,1.8354,1.8368,1.8524,1.8422,1.8431,1.8437,1.8441,1.8777,1.878,0,0,0,0,0,0,1.7812,1.7843,1.8072,1.8083,1.7934,1.8058,1.8078,1.8132,1.824,1.8253,1.8174,1.8172,1.8339,1.8357,1.8374,1.8515,1.8432,1.8441,1.8447,1.8774,1.8778,1.8781,0,0,0,0,0,0,1.7805,1.7832,1.8065,1.7964,1.7994,1.8066,1.8126,1.8137,1.8178,1.8258,1.8271,1.8203,1.8338,1.8361,1.8473,1.8521,1.8446,1.8455,1.877,1.8775,1.878,1.8795,0,0,0,0,0,0,1.7796,1.7829,1.7872,1.7964,1.7999,1.816,1.8129,1.8142,1.8194,1.8194,1.8288,1.8301,1.8337,1.8458,1.8482,1.8533,1.8462,1.8766,1.8773,1.8778,1.8791,1.88,1.8808,0,0,0,0,0,1.7785,1.787,1.7874,1.7902,1.8054,1.8163,1.8183,1.8221,1.8198,1.8243,1.8294,1.8298,1.8512,1.8469,1.8497,1.8551,1.8763,1.8771,1.8778,1.8787,1.8798,1.8808,0,0,0,0,0,0,1.7782,1.7883,1.7889,1.8006,1.8076,1.8165,1.8222,1.8232,1.831,1.8306,1.8352,1.8373,1.8484,1.8529,1.848,1.8667,1.8635,1.8648,1.8633,1.8645,1.8653,1.864,1.847,0,0,0,0,0,1.7795,1.7874,1.7958,1.8054,1.8089,1.8149,1.8198,1.8222,1.8296,1.8326,1.8385,1.8458,1.8542,1.8596,1.8677,1.8798,1.8819,1.8849,1.8857,1.8864,1.8874,1.8943,1.8957,1.8805,1.8805,1.8804,0,0,1.7824,1.7888,1.7935,1.8055,1.8112,1.8194,1.8174,1.8261,1.8322,1.834,1.8449,1.8495,1.8579,1.8696,1.8751,1.8737,1.8921,1.8873,1.8877,1.8885,1.8951,1.8966,1.8978,1.8809,1.8809,1.8808,0,0,1.7916,1.7973,1.8059,1.8116,1.8202,1.8242,1.8263,1.8352,1.8383,1.8493,1.8508,1.8583,1.8725,1.8785,1.8834,1.895,1.8958,1.8976,1.902,1.9086,1.9098,1.9109,1.9151,1.9165,1.8986,1.8986,1.8986,0,1.794,1.8063,1.8102,1.8189,1.8242,1.8261,1.8349,1.8403,1.8512,1.8548,1.8531,1.8711,1.8769,1.8901,1.8929,1.8968,1.8994,1.8965,1.9093,1.9104,1.9115,1.9156,1.9171,1.8988,1.8987,1.8987,1.8987,0,1.8089,1.8174,1.8233,1.8337,1.8397,1.8484,1.8537,1.8593,1.8613,1.8655,1.8768,1.8838,1.8934,1.8967,1.8987,1.9102,1.9091,1.9083,1.9053,1.913,1.9169,1.9185,1.899,1.8989,1.8989,1.8989,0,0,1.8184,1.8309,1.833,1.8378,1.8474,1.8541,1.863,1.8724,1.8771,1.8846,1.8922,1.9043,1.9036,1.9091,1.9118,1.9176,1.9265,1.9162,1.9164,1.9178,1.9397,1.9402,1.942,1.9271,1.9274,1.9276,1.939,0,1.8288,1.8445,1.8484,1.8619,1.8698,1.8718,1.8796,1.8864,1.8906,1.8981,1.9028,1.9113,1.9097,1.9131,1.9189,1.9242,1.931,1.9234,1.9343,1.9346,1.9321,1.944,1.9446,1.955,1.9406,1.9408,1.941,0,1.843,1.8507,1.8649,1.8736,1.8771,1.884,1.8929,1.9,1.9079,1.9106,1.9168,1.919,1.9284,1.9249,1.938,1.9328,1.9375,1.9407,1.9412,1.9424,1.9382,1.9455,1.9584,1.9599,1.9435,1.9433,1.9431,0,1.8485,1.8625,1.8728,1.8768,1.8873,1.8921,1.8967,1.9042,1.9096,1.9175,1.9211,1.9299,1.9348,1.9417,1.9462,1.9432,1.959,1.9558,1.9616,1.9615,1.9648,1.9645,1.9786,1.9678,1.9678,1.9678,1.9677,0,1.8597,1.8683,1.8755,1.8818,1.8916,1.8961,1.9057,1.9103,1.9171,1.9245,1.9268,1.9337,1.9393,1.947,1.9506,1.961,1.9632,1.9656,1.9665,1.9654,1.9651,1.9685,1.9679,1.9682,1.9681,1.968,1.9679,0,1.8675,1.8726,1.884,1.893,1.8954,1.9023,1.91,1.9163,1.9206,1.93,1.9324,1.9392,1.9484,1.9537,1.9653,1.9677,1.9792,1.9798,1.9766,1.9769,1.9824,1.9818,1.9992,2.0017,1.9892,1.9893,1.9894,0,1.8743,1.881,1.8906,1.8957,1.9004,1.9085,1.9141,1.9187,1.9244,1.9339,1.9391,1.9485,1.9562,1.9708,1.9769,1.9858,1.9865,1.992,1.9879,1.9866,1.9866,1.9862,1.9869,1.9927,1.9928,1.9929,1.993,0,1.8858,1.888,1.8958,1.9046,1.9111,1.9183,1.9254,1.9294,1.9353,1.9416,1.951,1.957,1.9688,1.9781,1.9875,1.9924,1.9937,1.9943,1.9961,1.995,1.9929,1.9941,1.9785,1.9938,1.9937,1.9937,1.9936,1.9936,1.8933,1.8994,1.9071,1.9158,1.9217,1.9283,1.9346,1.9398,1.9477,1.9576,1.9599,1.9699,1.9777,1.9905,1.9956,2.0035,2.0025,2.0051,2.0058,2.0063,2.0065,1.9916,2.0052,2.0052,2.0052,2.0052,2.0052,0,1.9049,1.91,1.918,1.9278,1.9347,1.9353,1.9432,1.9489,1.9576,1.9648,1.9723,1.9832,1.9922,1.999,2.0082,2.0133,2.0141,2.0156,2.0152,2.0163,2.0069,2.0044,2.0147,2.0147,2.0147,2.0147,2.0147,2.0147,1.9118,1.9221,1.9252,1.9385,1.9436,1.9533,1.9578,1.9639,1.9697,1.9817,1.9891,1.9935,2.0006,2.0104,2.0187,2.0205,2.0238,2.0251,2.027,2.018,2.017,2.016,2.0137,2.0258,2.0258,2.0358,2.0359,2.036]},{"header":{"parameterUnit":"m.s-1","parameterCategory":1,"la1":30.2991,"la2":30.254,"lo1":-89.0895,"lo2":-89.0444,"dy":0.0017,"dx":0.0017,"nx":28,"ny":28,"refTime":"2024-04-20T03:00:00:Z","depth":0,"parameterNumber":3,"parameterNumberName":"V-component_of_WINDS"},"data":[0,0,0,0,0,0,0,0,0,0,0,0,0,0,0,0,0,0,0,0,0,0,0,0,0,0,0,0,0,0,0,0,0,0,0,0,0,0,0,0,0,0,0,0,0,0,0,0,0,0,0,0,0,0,0,0,0,0,0.6944,0.6945,0,0.6985,0.6986,0.6986,0.6973,0.6972,0.6971,0.6971,0.7014,0.7016,0.7018,0,0,0,0,0,0,0,0,0,0,0,0,0,0.6856,0.6858,0.6944,0.6945,0.6945,0.6985,0.6986,0.6986,0.6973,0.6972,0.6971,0.697,0.7013,0.7015,0.7018,0,0,0,0,0,0,0,0,0,0,0,0,0,0.6895,0.6858,0.6944,0.6944,0.6944,0.6985,0.6986,0.6986,0.6974,0.6972,0.6971,0.697,0.7012,0.7015,0.7018,0.7062,0,0,0.7027,0.7028,0,0,0,0,0,0,0,0,0.6893,0.6899,0.6943,0.6944,0.6944,0.6973,0.697,0.7012,0.6974,0.6962,0.6971,0.6969,0.7001,0.7005,0.7016,0.7064,0.7066,0.7027,0.7029,0.703,0.7031,0,0,0,0,0,0,0,0.689,0.6897,0.6961,0.6944,0.6945,0.6942,0.6946,0.6978,0.6989,0.6963,0.6962,0.6967,0.7001,0.7013,0.7017,0.7067,0.7027,0.703,0.7032,0.7033,0.7154,0.7155,0,0,0,0,0,0,0.6887,0.6895,0.6959,0.6962,0.6915,0.6944,0.6949,0.6965,0.6988,0.6991,0.6968,0.6967,0.7008,0.7013,0.7018,0.7072,0.703,0.7033,0.7035,0.7152,0.7154,0.7155,0,0,0,0,0,0,0.6885,0.6893,0.6958,0.6928,0.6936,0.6947,0.6965,0.6966,0.6978,0.6992,0.6994,0.6978,0.7008,0.7014,0.7051,0.7073,0.7035,0.7037,0.715,0.7153,0.7155,0.7179,0,0,0,0,0,0,0.6883,0.6892,0.691,0.6928,0.6937,0.699,0.6967,0.6968,0.6983,0.6981,0.7002,0.7004,0.7007,0.7047,0.7054,0.7076,0.7039,0.7149,0.7151,0.7154,0.7176,0.7182,0.7186,0,0,0,0,0,0.688,0.6915,0.691,0.6918,0.6959,0.6992,0.6997,0.6999,0.6985,0.7002,0.7011,0.7003,0.7069,0.7051,0.7059,0.7082,0.7147,0.7151,0.7154,0.7174,0.7181,0.7186,0,0,0,0,0,0,0.6899,0.6918,0.6913,0.6955,0.6972,0.6989,0.7011,0.7006,0.7027,0.7025,0.7027,0.7032,0.707,0.708,0.7059,0.7126,0.7106,0.7111,0.7119,0.7125,0.713,0.7127,0.7042,0,0,0,0,0,0.6908,0.6933,0.6948,0.6984,0.6992,0.7,0.7015,0.7015,0.7032,0.7039,0.7051,0.7069,0.7093,0.7109,0.7133,0.7177,0.7181,0.7197,0.7202,0.7206,0.721,0.7235,0.7242,0.7166,0.7166,0.7166,0,0,0.6928,0.6941,0.6957,0.6988,0.7001,0.7027,0.7006,0.7035,0.7054,0.7044,0.708,0.7089,0.7108,0.7149,0.7168,0.7159,0.7232,0.721,0.7213,0.7216,0.7239,0.7246,0.7252,0.7168,0.7168,0.7168,0,0,0.6977,0.6989,0.702,0.7033,0.7053,0.7057,0.7065,0.7083,0.7088,0.7124,0.7117,0.7139,0.7182,0.7196,0.7209,0.7261,0.7255,0.7268,0.7295,0.7318,0.7324,0.733,0.7349,0.7356,0.7273,0.7273,0.7273,0,0.6999,0.7037,0.7037,0.7066,0.708,0.7071,0.7103,0.7115,0.7141,0.7151,0.714,0.7192,0.7204,0.7249,0.7261,0.7272,0.728,0.7267,0.7323,0.7329,0.7334,0.7352,0.7359,0.7274,0.7274,0.7274,0.7274,0,0.7064,0.709,0.7113,0.7138,0.7154,0.7184,0.7189,0.7205,0.7203,0.7209,0.7246,0.726,0.7286,0.7296,0.7295,0.734,0.7333,0.7323,0.7303,0.7342,0.736,0.7367,0.7277,0.7276,0.7276,0.7275,0,0,0.7128,0.7151,0.716,0.7171,0.7191,0.7211,0.724,0.7265,0.7279,0.7297,0.7322,0.7357,0.7347,0.7361,0.7361,0.7381,0.7422,0.7368,0.7368,0.7378,0.7473,0.7482,0.749,0.7417,0.7419,0.742,0.7472,0,0.7179,0.7231,0.7231,0.7278,0.7303,0.7293,0.7319,0.7334,0.734,0.7361,0.7367,0.7393,0.7377,0.7385,0.7405,0.7413,0.7441,0.7409,0.7442,0.7443,0.7438,0.7499,0.7509,0.7558,0.7479,0.748,0.7481,0,0.7247,0.7266,0.7316,0.7331,0.7342,0.7365,0.7387,0.7407,0.7424,0.7426,0.7441,0.7438,0.7468,0.7445,0.7487,0.7465,0.7477,0.7483,0.7485,0.749,0.7465,0.7507,0.7573,0.7581,0.7491,0.749,0.749,0,0.729,0.7328,0.7363,0.7372,0.7391,0.7407,0.7416,0.7431,0.7445,0.7465,0.7474,0.7496,0.7509,0.7527,0.7529,0.7513,0.757,0.7549,0.7574,0.7574,0.7588,0.7588,0.7659,0.7594,0.7594,0.7594,0.7594,0,0.7348,0.7379,0.7382,0.7404,0.7438,0.7437,0.7471,0.7478,0.7492,0.7514,0.7507,0.7529,0.753,0.7552,0.7554,0.7588,0.7593,0.7597,0.7597,0.7598,0.7598,0.7608,0.7605,0.7596,0.7596,0.7595,0.7595,0,0.7403,0.7406,0.7443,0.7458,0.7462,0.7487,0.7499,0.7519,0.7523,0.7552,0.7559,0.7566,0.7591,0.7595,0.7625,0.7626,0.7667,0.7663,0.7662,0.7662,0.7687,0.7685,0.7769,0.778,0.7707,0.7707,0.7708,0,0.7441,0.7464,0.748,0.7495,0.7504,0.7528,0.7542,0.7541,0.7557,0.7576,0.7595,0.7619,0.7639,0.768,0.7688,0.7711,0.7708,0.7736,0.7712,0.7712,0.771,0.7709,0.7712,0.7741,0.7742,0.7742,0.7743,0,0.7507,0.7507,0.7528,0.755,0.7567,0.7584,0.76,0.7612,0.7613,0.7631,0.7657,0.7672,0.7702,0.7726,0.7748,0.7757,0.7751,0.775,0.7757,0.776,0.7758,0.776,0.7676,0.7749,0.7748,0.7748,0.7747,0.7747,0.7555,0.7576,0.759,0.7614,0.7625,0.764,0.766,0.7666,0.7687,0.7711,0.7709,0.7738,0.7752,0.7781,0.7792,0.7814,0.7805,0.7815,0.7818,0.7821,0.7824,0.7753,0.7818,0.7818,0.7817,0.7817,0.7817,0,0.7623,0.7631,0.7652,0.7675,0.7693,0.7683,0.77,0.7716,0.7741,0.7755,0.7774,0.7804,0.7827,0.7836,0.7859,0.7875,0.7872,0.7881,0.7881,0.7883,0.7831,0.7822,0.7883,0.7883,0.7883,0.7882,0.7882,0.7882,0.766,0.7694,0.7696,0.7735,0.7743,0.7771,0.7781,0.7795,0.7806,0.7838,0.7858,0.7863,0.7875,0.7898,0.7919,0.7921,0.7931,0.7941,0.7942,0.7893,0.7887,0.788,0.7873,0.7942,0.7943,0.7992,0.7993,0.7993]}]]